DB0RV-13 Weather Reports


time (UTC)temp
C
wind
direction
speed
KPH
gust
KPH
rain 1hr
cm
rain 24hr
cm
rain mn
cm
humidity
%
barometer
mb
20260506204002 7 250 6.4 0.0 0.00 0.00 0.00 90 1009.8
20260506203501 7 248 4.8 0.0 0.00 0.00 0.00 89 1009.8
20260506203001 7 240 6.4 0.0 0.00 0.00 0.00 89 1009.8
20260506202503 7 246 6.4 0.0 0.00 0.00 0.00 90 1009.8
20260506202002 7 246 4.8 0.0 0.00 0.00 0.00 90 1009.8
20260506201501 7 236 4.8 0.0 0.00 0.00 0.00 89 1009.8
20260506201003 7 224 4.8 0.0 0.00 0.00 0.00 89 1009.9
20260506200501 7 218 6.4 0.0 0.00 0.00 0.00 89 1009.7
20260506200001 7 220 3.2 0.0 0.00 0.00 0.00 89 1009.6
20260506195502 7 239 6.4 0.0 0.00 0.00 0.00 88 1009.5
20260506195001 8 216 6.4 0.0 0.00 0.00 0.00 87 1009.5
20260506194501 8 207 9.7 0.0 0.00 0.00 0.00 87 1009.4
20260506194003 8 214 6.4 0.0 0.00 0.00 0.00 87 1009.4
20260506193502 8 221 4.8 0.0 0.00 0.00 0.00 87 1009.5
20260506193002 8 204 6.4 0.0 0.00 0.00 0.00 87 1009.5
20260506192502 7 208 8.0 0.0 0.00 0.00 0.00 87 1009.4
20260506192005 7 239 6.4 0.0 0.00 0.00 0.00 87 1009.3
20260506191502 7 245 4.8 0.0 0.00 0.00 0.00 87 1009.2
20260506191002 8 238 6.4 0.0 0.00 0.00 0.00 86 1009.2
20260506190502 8 243 3.2 0.0 0.00 0.00 0.00 86 1009.1
20260506190002 8 239 6.4 0.0 0.00 0.00 0.00 85 1009.0
20260506185503 8 241 8.0 0.0 0.00 0.00 0.00 85 1009.0
20260506185001 8 224 6.4 0.0 0.00 0.00 0.00 86 1008.9
20260506184502 8 239 4.8 0.0 0.00 0.00 0.00 86 1008.8
20260506184002 8 238 3.2 0.0 0.00 0.00 0.00 86 1008.8
20260506183501 8 209 4.8 0.0 0.00 0.00 0.00 85 1008.8
20260506183002 8 252 3.2 0.0 0.00 0.00 0.00 85 1008.7
20260506182501 8 224 4.8 0.0 0.00 0.00 0.00 85 1008.7
20260506182002 9 256 4.8 0.0 0.00 0.00 0.00 85 1008.7
20260506181501 9 277 6.4 0.0 0.00 0.00 0.00 85 1008.7
20260506181002 9 228 3.2 0.0 0.00 0.00 0.00 85 1008.6
20260506180501 9 251 6.4 0.0 0.00 0.00 0.00 84 1008.6
20260506180002 9 260 4.8 0.0 0.00 0.00 0.00 84 1008.6
20260506175502 9 272 4.8 0.0 0.00 0.00 0.00 84 1008.5
20260506175002 9 242 6.4 0.0 0.00 0.00 0.00 84 1008.5
20260506174502 9 237 6.4 0.0 0.00 0.00 0.00 84 1008.4
20260506174001 9 241 6.4 0.0 0.00 0.00 0.00 84 1008.4
20260506173502 9 249 14.5 0.0 0.00 0.00 0.00 85 1008.4
20260506173004 9 242 3.2 0.0 0.00 0.00 0.00 86 1008.4
20260506172502 10 239 6.4 0.0 0.00 0.00 0.00 86 1008.3
20260506172002 10 246 8.0 0.0 0.00 0.00 0.00 86 1008.2
20260506171502 10 246 6.4 0.0 0.00 0.00 0.00 86 1008.1
20260506171001 9 245 8.0 0.0 0.00 0.00 0.00 88 1008.1
20260506170502 9 256 8.0 0.0 0.00 0.00 0.00 88 1008.0
20260506170001 9 270 9.7 0.0 0.00 0.00 0.00 88 1008.0
20260506165502 9 248 12.9 0.0 0.00 0.00 0.00 88 1008.0
20260506165002 9 276 8.0 0.0 0.00 0.00 0.00 88 1007.9
20260506164002 8 253 9.7 0.0 0.00 0.00 0.00 88 1008.0
20260506163503 8 245 9.7 0.0 0.00 0.00 0.00 88 1007.8
20260506163002 8 272 6.4 0.0 0.00 0.00 0.00 89 1007.8
20260506162501 8 271 3.2 0.0 0.00 0.00 0.00 88 1007.9
20260506162002 8 249 8.0 0.0 0.00 0.00 0.00 89 1007.9
20260506161501 8 251 12.9 0.0 0.00 0.00 0.00 89 1007.9
20260506161001 8 263 9.7 0.0 0.00 0.00 0.00 89 1007.9
20260506160501 8 251 16.1 0.0 0.00 0.00 0.00 90 1007.9
20260506160002 8 242 8.0 0.0 0.00 0.00 0.00 90 1007.8
20260506155502 8 269 8.0 0.0 0.00 0.00 0.00 90 1007.8
20260506155001 8 244 9.7 0.0 0.00 0.00 0.00 90 1007.8
20260506154502 8 244 6.4 0.0 0.00 0.00 0.00 91 1007.7
20260506154001 8 261 6.4 0.0 0.00 0.00 0.00 91 1007.7
20260506153502 8 251 6.4 0.0 0.00 0.00 0.00 92 1007.6
20260506153001 8 238 6.4 0.0 0.00 0.00 0.00 92 1007.5
20260506152501 8 282 9.7 0.0 0.00 0.00 0.00 92 1007.5
20260506152001 8 267 9.7 0.0 0.00 0.00 0.00 92 1007.4
20260506151501 7 272 9.7 0.0 0.00 0.00 0.00 92 1007.5
20260506151002 7 262 12.9 0.0 0.00 0.00 0.00 92 1007.3
20260506150501 7 268 12.9 0.0 0.00 0.00 0.00 91 1007.2
20260506150003 8 253 11.3 0.0 0.00 0.00 0.00 91 1007.5
20260506145502 8 258 22.5 0.0 0.00 0.00 0.00 91 1007.6
20260506145002 8 282 22.5 0.0 0.00 0.00 0.00 91 1007.6
20260506144501 8 242 22.5 0.0 0.00 0.00 0.00 91 1007.6
20260506144002 8 261 20.9 0.0 0.00 0.00 0.00 90 1007.4
20260506143501 8 269 14.5 0.0 0.00 0.00 0.00 90 1007.2
20260506143001 9 265 17.7 0.0 0.00 0.00 0.00 89 1006.9
20260506142502 9 269 19.3 0.0 0.00 0.00 0.00 88 1006.5
20260506142002 10 278 29.0 0.0 0.00 0.00 0.00 85 1006.5
20260506141502 10 270 14.5 0.0 0.00 0.00 0.00 81 1006.5
20260506141002 11 279 22.5 0.0 0.00 0.00 0.00 74 1006.2
20260506140502 13 240 20.9 0.0 0.00 0.00 0.00 71 1005.9
20260506140001 13 246 4.8 0.0 0.00 0.00 0.00 71 1005.8
20260506135501 14 243 4.8 0.0 0.00 0.00 0.00 71 1005.6
20260506135001 14 243 9.7 0.0 0.00 0.00 0.00 71 1005.5
20260506134502 15 244 8.0 0.0 0.00 0.00 0.00 70 1005.5
20260506134002 15 272 3.2 0.0 0.00 0.00 0.00 68 1005.5
20260506133502 15 282 0.0 0.0 0.00 0.00 0.00 70 1005.4
20260506133002 15 284 12.9 0.0 0.00 0.00 0.00 69 1005.5
20260506132501 14 243 3.2 0.0 0.00 0.00 0.00 70 1005.5
20260506132003 15 274 12.9 0.0 0.00 0.00 0.00 72 1005.4
20260506131502 15 256 8.0 0.0 0.00 0.00 0.00 70 1005.5
20260506131002 15 217 8.0 0.0 0.00 0.00 0.00 73 1005.4
20260506130501 14 218 4.8 0.0 0.00 0.00 0.00 74 1005.4
20260506130002 13 183 4.8 0.0 0.00 0.00 0.00 73 1005.3
20260506125502 13 213 6.4 0.0 0.00 0.00 0.00 73 1005.6
20260506125002 13 209 8.0 0.0 0.00 0.00 0.00 74 1005.7
20260506124502 13 222 8.0 0.0 0.00 0.00 0.00 73 1005.6
20260506124001 13 248 6.4 0.0 0.00 0.00 0.00 71 1005.7
20260506123502 14 257 6.4 0.0 0.00 0.00 0.00 69 1005.5
20260506123001 14 238 6.4 0.0 0.00 0.00 0.00 68 1005.6
20260506122502 14 226 6.4 0.0 0.00 0.00 0.00 66 1005.5
20260506122001 14 319 3.2 0.0 0.00 0.00 0.00 67 1005.4
20260506121502 14 238 3.2 0.0 0.00 0.00 0.00 69 1005.4
20260506121002 14 253 3.2 0.0 0.00 0.00 0.00 69 1005.3
20260506120502 13 230 1.6 0.0 0.00 0.00 0.00 67 1005.3
20260506120002 13 272 4.8 0.0 0.00 0.00 0.00 69 1005.2
20260506115501 14 278 4.8 0.0 0.00 0.00 0.00 69 1005.1
20260506115002 14 301 1.6 0.0 0.00 0.00 0.00 67 1005.1
20260506114501 13 307 3.2 0.0 0.00 0.00 0.00 68 1005.1
20260506114002 14 334 4.8 0.0 0.00 0.00 0.00 68 1005.1
20260506113502 14 350 1.6 0.0 0.00 0.00 0.00 67 1005.1
20260506113002 15 326 3.2 0.0 0.00 0.00 0.00 65 1005.3
20260506112501 14 356 0.0 0.0 0.00 0.00 0.00 66 1005.3
20260506112004 14 335 3.2 0.0 0.00 0.00 0.00 68 1005.3
20260506111501 13 356 0.0 0.0 0.00 0.00 0.00 66 1005.3
20260506111001 14 73 1.6 0.0 0.00 0.00 0.00 67 1005.4
20260506110502 14 29 1.6 0.0 0.00 0.00 0.00 66 1005.6
20260506110001 14 96 1.6 0.0 0.00 0.00 0.00 68 1005.6
20260506105502 14 354 3.2 0.0 0.00 0.00 0.00 69 1005.6
20260506105001 14 266 0.0 0.0 0.00 0.00 0.00 69 1005.6
20260506104502 14 0 0.0 0.0 0.00 0.00 0.00 70 1005.5
20260506104001 14 212 1.6 0.0 0.00 0.00 0.00 69 1005.7
20260506103503 13 347 3.2 0.0 0.00 0.00 0.00 70 1005.7
20260506103001 13 28 3.2 0.0 0.00 0.00 0.00 70 1005.7
20260506102502 14 333 6.4 0.0 0.00 0.00 0.00 69 1005.8
20260506102001 15 304 3.2 0.0 0.00 0.00 0.00 71 1005.8
20260506101501 13 50 4.8 0.0 0.00 0.00 0.00 70 1005.7
20260506101002 13 1 3.2 0.0 0.00 0.00 0.00 72 1005.8
20260506100502 13 266 1.6 0.0 0.00 0.00 0.00 73 1005.8
20260506100002 13 192 3.2 0.0 0.00 0.00 0.00 73 1006.0
20260506095501 13 268 4.8 0.0 0.00 0.00 0.00 71 1006.0
20260506095002 13 342 3.2 0.0 0.00 0.00 0.00 72 1005.9
20260506094501 13 171 1.6 0.0 0.00 0.00 0.00 75 1005.8
20260506094002 12 32 3.2 0.0 0.00 0.00 0.00 78 1005.7
20260506093501 12 41 6.4 0.0 0.00 0.00 0.00 79 1005.7
20260506093002 12 28 8.0 0.0 0.00 0.00 0.00 79 1005.6
20260506092502 12 30 6.4 0.0 0.00 0.00 0.00 79 1005.8
20260506092001 12 42 3.2 0.0 0.00 0.00 0.00 79 1005.9
20260506091502 12 135 1.6 0.0 0.00 0.00 0.00 80 1006.0
20260506091001 12 127 0.0 0.0 0.00 0.00 0.00 80 1006.1
20260506090502 12 147 1.6 0.0 0.00 0.00 0.00 79 1006.2
20260506090001 12 211 1.6 0.0 0.00 0.00 0.00 79 1006.2
20260506085501 12 128 1.6 0.0 0.00 0.00 0.00 79 1006.2
20260506085001 12 40 3.2 0.0 0.00 0.00 0.00 77 1006.0
20260506084502 12 343 1.6 0.0 0.00 0.00 0.00 77 1006.1
20260506084002 12 33 1.6 0.0 0.00 0.00 0.00 77 1006.1
20260506083502 12 57 1.6 0.0 0.00 0.00 0.00 78 1006.1
20260506083002 12 61 1.6 0.0 0.00 0.00 0.00 79 1006.0
20260506082501 12 0 0.0 0.0 0.00 0.00 0.00 81 1005.9
20260506082002 12 93 4.8 0.0 0.00 0.00 0.00 81 1005.9
20260506081501 12 120 6.4 0.0 0.00 0.00 0.00 80 1005.9
20260506081001 12 87 3.2 0.0 0.00 0.00 0.00 81 1005.8
20260506080501 12 103 6.4 0.0 0.00 0.00 0.00 82 1005.8
20260506073502 10 75 3.2 0.0 0.00 0.00 0.00 88 1006.0
20260506073001 10 69 3.2 0.0 0.00 0.00 0.00 89 1006.1
20260506072502 10 79 4.8 0.0 0.00 0.00 0.00 90 1006.1
20260506072001 10 60 4.8 0.0 0.00 0.00 0.00 91 1006.0
20260506071502 10 45 4.8 0.0 0.00 0.00 0.00 91 1006.0
20260506071002 10 43 6.4 0.0 0.00 0.00 0.00 91 1005.9
20260506070502 10 40 4.8 0.0 0.00 0.00 0.00 91 1006.0
20260506062502 9 179 3.2 0.0 0.00 0.00 0.00 94 1006.4
20260506062002 9 180 3.2 0.0 0.00 0.00 0.00 94 1006.2
20260506061502 9 99 0.0 0.0 0.00 0.00 0.00 95 1006.1
20260506061001 8 139 0.0 0.0 0.00 0.00 0.00 96 1006.3
20260506060502 8 60 3.2 0.0 0.00 0.00 0.00 95 1006.2
20260506051002 8 0 0.0 0.0 0.00 0.00 0.00 96 1006.2
20260506050501 8 40 1.6 0.0 0.00 0.00 0.00 96 1006.3
20260506045002 7 75 3.2 0.0 0.00 0.00 0.00 97 1006.4
20260506044501 8 312 1.6 0.0 0.00 0.00 0.00 97 1006.4
20260506044001 7 314 4.8 0.0 0.00 0.00 0.00 97 1006.3
20260506043502 7 320 3.2 0.0 0.00 0.00 0.00 97 1006.3
20260506043002 7 313 3.2 0.0 0.00 0.00 0.00 97 1006.5
20260506042502 7 321 3.2 0.0 0.00 0.00 0.00 96 1006.6
20260506042002 8 334 4.8 0.0 0.00 0.00 0.00 97 1006.7
20260506041502 8 154 0.0 0.0 0.00 0.00 0.00 97 1006.7
20260506041001 8 156 1.6 0.0 0.00 0.00 0.00 96 1006.8
20260506040502 8 153 3.2 0.0 0.00 0.00 0.00 95 1006.8
20260506040001 8 143 3.2 0.0 0.00 0.00 0.00 94 1006.8
20260506035501 8 148 1.6 0.0 0.00 0.00 0.00 93 1007.0
20260506035001 8 151 3.2 0.0 0.00 0.00 0.00 92 1006.9
20260506034501 9 176 0.0 0.0 0.00 0.00 0.00 94 1006.9
20260506034002 9 301 1.6 0.0 0.00 0.00 0.00 94 1006.9
20260506033501 8 314 3.2 0.0 0.00 0.00 0.00 93 1006.9
20260506033002 8 324 4.8 0.0 0.00 0.00 0.00 93 1007.0
20260506032501 8 328 3.2 0.0 0.00 0.00 0.00 92 1007.1
20260506032002 9 320 1.6 0.0 0.00 0.00 0.00 92 1007.1
20260506031502 9 325 3.2 0.0 0.00 0.00 0.00 92 1007.1
20260506031001 9 299 1.6 0.0 0.00 0.00 0.00 92 1007.4
20260506030502 9 330 1.6 0.0 0.00 0.00 0.00 92 1007.4
20260506030002 9 303 1.6 0.0 0.00 0.00 0.00 92 1007.5
20260506025501 8 308 1.6 0.0 0.00 0.00 0.00 91 1007.5
20260506025001 9 331 3.2 0.0 0.00 0.00 0.00 91 1007.6
20260506024502 9 348 1.6 0.0 0.00 0.00 0.00 91 1007.5
20260506024001 9 119 1.6 0.0 0.00 0.00 0.00 90 1007.5
20260506023502 9 0 0.0 0.0 0.00 0.00 0.00 91 1007.5
20260506023002 9 130 0.0 0.0 0.00 0.00 0.00 91 1007.6
20260506022501 9 0 0.0 0.0 0.00 0.00 0.00 89 1007.6
20260506022002 10 285 0.0 0.0 0.00 0.00 0.00 90 1007.6
20260506021503 10 187 1.6 0.0 0.00 0.00 0.00 90 1007.6
20260506021001 10 0 0.0 0.0 0.00 0.00 0.00 89 1007.6
20260506020502 10 183 0.0 0.0 0.00 0.00 0.00 89 1007.6
20260506020002 10 0 0.0 0.0 0.00 0.00 0.00 89 1007.7
20260506015501 10 0 0.0 0.0 0.00 0.00 0.00 90 1007.8
20260506015002 9 0 0.0 0.0 0.00 0.00 0.00 90 1007.8
20260506014503 9 0 0.0 0.0 0.00 0.00 0.00 90 1007.9
20260506014001 9 33 3.2 0.0 0.00 0.00 0.00 89 1007.8
20260506013502 9 35 1.6 0.0 0.00 0.00 0.00 90 1007.9
20260506013002 9 63 1.6 0.0 0.00 0.00 0.00 89 1007.9
20260506012501 9 0 0.0 0.0 0.00 0.00 0.00 88 1007.9
20260506012002 9 282 3.2 0.0 0.00 0.00 0.00 89 1008.0
20260506011502 10 260 1.6 0.0 0.00 0.00 0.00 89 1008.0
20260506011001 10 300 1.6 0.0 0.00 0.00 0.00 88 1007.8
20260506010502 10 351 0.0 0.0 0.00 0.00 0.00 88 1007.9
20260506010002 10 267 1.6 0.0 0.00 0.00 0.00 88 1008.1
20260506005501 10 241 3.2 0.0 0.00 0.00 0.00 88 1008.2
20260506005002 10 244 4.8 0.0 0.00 0.00 0.00 88 1008.3
20260506004502 10 284 3.2 0.0 0.00 0.00 0.00 87 1008.3
20260506004001 10 286 6.4 0.0 0.00 0.00 0.00 88 1008.3
20260506003502 10 238 6.4 0.0 0.00 0.00 0.00 88 1008.4
20260506003002 10 272 1.6 0.0 0.00 0.00 0.00 87 1008.2
20260506002501 10 299 1.6 0.0 0.00 0.00 0.00 87 1008.2
20260506002002 10 332 3.2 0.0 0.00 0.00 0.00 85 1008.1
20260506001502 10 323 0.0 0.0 0.00 0.00 0.00 87 1008.1
20260506001001 10 0 0.0 0.0 0.00 0.00 0.00 87 1008.3
20260506000502 10 0 0.0 0.0 0.00 0.00 0.00 87 1008.3
20260506000002 10 224 1.6 0.0 0.00 0.00 0.00 88 1008.2
20260505235501 10 277 3.2 0.0 0.00 0.00 0.00 87 1008.3
20260505235002 10 224 4.8 0.0 0.00 0.00 0.00 88 1008.3
20260505234502 10 238 3.2 0.0 0.00 0.00 0.00 88 1008.5
20260505234001 10 300 3.2 0.0 0.00 0.00 0.00 88 1008.5
20260505233502 10 229 4.8 0.0 0.00 0.00 0.00 89 1008.5
20260505233002 10 277 1.6 0.0 0.00 0.00 0.00 89 1008.5
20260505232501 10 281 3.2 0.0 0.00 0.00 0.00 89 1008.6
20260505232002 10 316 6.4 0.0 0.00 0.00 0.00 88 1008.7
20260505231502 10 241 3.2 0.0 0.00 0.00 0.00 88 1008.7
20260505231001 10 296 3.2 0.0 0.00 0.00 0.00 88 1008.7
20260505230502 10 283 1.6 0.0 0.00 0.00 0.00 88 1008.7
20260505230002 10 267 3.2 0.0 0.00 0.00 0.00 88 1008.7
20260505225501 10 249 3.2 0.0 0.00 0.00 0.00 88 1008.7
20260505225002 10 221 3.2 0.0 0.00 0.00 0.00 87 1008.7
20260505224502 10 205 6.4 0.0 0.00 0.00 0.00 88 1008.8
20260505224001 10 237 4.8 0.0 0.00 0.00 0.00 88 1008.8
20260505223502 10 242 4.8 0.0 0.00 0.00 0.00 88 1008.8
20260505223003 10 260 3.2 0.0 0.00 0.00 0.00 88 1008.9
20260505222501 10 240 6.4 0.0 0.00 0.00 0.00 88 1008.9
20260505222002 10 250 6.4 0.0 0.00 0.00 0.00 88 1008.9
20260505221502 10 271 6.4 0.0 0.00 0.00 0.00 89 1008.9
20260505221001 10 242 6.4 0.0 0.00 0.00 0.00 88 1008.9
20260505220502 10 266 4.8 0.0 0.00 0.00 0.00 88 1008.8
20260505220002 10 254 3.2 0.0 0.00 0.00 0.00 88 1008.9
20260505215501 10 245 6.4 0.0 0.00 0.00 0.00 88 1008.8
20260505215002 10 258 6.4 0.0 0.00 0.00 0.00 88 1008.8
20260505214502 10 243 6.4 0.0 0.00 0.00 0.00 89 1008.8
20260505214001 10 240 4.8 0.0 0.00 0.00 0.00 89 1008.8
20260505213502 10 240 4.8 0.0 0.00 0.00 0.00 90 1008.9
20260505213002 10 244 3.2 0.0 0.00 0.00 0.00 90 1009.0
20260505212501 10 248 4.8 0.0 0.00 0.00 0.00 90 1008.9
20260505212002 10 266 6.4 0.0 0.00 0.00 0.00 90 1009.0
20260505211502 10 243 3.2 0.0 0.00 0.00 0.00 90 1009.0
20260505211001 10 239 6.4 0.0 0.00 0.00 0.00 90 1009.0
20260505210501 10 239 4.8 0.0 0.00 0.00 0.00 89 1008.9
20260505210002 10 218 9.7 0.0 0.00 0.00 0.00 90 1008.9
20260505205501 10 241 4.8 0.0 0.00 0.00 0.00 90 1008.9
20260505205002 10 222 4.8 0.0 0.00 0.00 0.00 90 1009.0
20260505204502 10 247 6.4 0.0 0.00 0.00 0.00 90 1009.0